| time (UTC) | temp F | wind direction | speed MPH | gust MPH | rain 1hr in | rain 24hr in | rain mn in | humidity % | barometer mb |
| 20260510065518 | 56 | 0 | 0.0 | 0.0 | 0.00 | 0.00 | 0.00 | 88 | 1012.1 |
| 20260510065023 | 56 | 0 | 0.0 | 0.0 | 0.00 | 0.00 | 0.00 | 88 | 1012.0 |
| 20260510064544 | 56 | 0 | 0.0 | 1.0 | 0.00 | 0.00 | 0.00 | 87 | 1012.0 |
| 20260510064020 | 56 | 0 | 0.0 | 2.0 | 0.00 | 0.00 | 0.00 | 88 | 1012.1 |
| 20260510063517 | 56 | 0 | 0.0 | 2.0 | 0.00 | 0.00 | 0.00 | 87 | 1012.1 |
| 20260510063042 | 56 | 0 | 0.0 | 1.0 | 0.00 | 0.00 | 0.00 | 87 | 1012.0 |
| 20260510062520 | 57 | 0 | 0.0 | 1.0 | 0.00 | 0.00 | 0.00 | 87 | 1012.1 |
| 20260510062020 | 57 | 0 | 0.0 | 1.0 | 0.00 | 0.00 | 0.00 | 87 | 1012.1 |
| 20260510061552 | 57 | 0 | 0.0 | 1.0 | 0.00 | 0.00 | 0.00 | 87 | 1012.0 |
| 20260510061019 | 57 | 0 | 0.0 | 1.0 | 0.00 | 0.00 | 0.00 | 87 | 1012.0 |
| 20260510060519 | 57 | 217 | 0.0 | 1.0 | 0.00 | 0.00 | 0.00 | 86 | 1012.0 |
| 20260510060043 | 57 | 0 | 0.0 | 2.0 | 0.00 | 0.00 | 0.00 | 86 | 1012.0 |
| 20260510055520 | 57 | 0 | 0.0 | 2.0 | 0.00 | 0.00 | 0.00 | 85 | 1012.1 |
| 20260510055018 | 57 | 0 | 0.0 | 2.0 | 0.00 | 0.00 | 0.00 | 84 | 1012.1 |
| 20260510054536 | 57 | 0 | 0.0 | 5.0 | 0.00 | 0.00 | 0.00 | 84 | 1012.1 |
| 20260510054021 | 58 | 9 | 0.0 | 5.0 | 0.00 | 0.00 | 0.00 | 83 | 1012.1 |
| 20260510053520 | 58 | 0 | 0.0 | 4.0 | 0.00 | 0.00 | 0.00 | 83 | 1012.2 |
| 20260510053053 | 58 | 0 | 0.0 | 0.0 | 0.00 | 0.00 | 0.00 | 83 | 1011.9 |
| 20260510052518 | 58 | 0 | 0.0 | 0.0 | 0.00 | 0.00 | 0.00 | 83 | 1011.8 |
| 20260510052019 | 58 | 0 | 0.0 | 0.0 | 0.00 | 0.00 | 0.00 | 83 | 1011.9 |
| 20260510051543 | 59 | 0 | 0.0 | 0.0 | 0.00 | 0.00 | 0.00 | 83 | 1011.9 |
| 20260510051018 | 59 | 0 | 0.0 | 0.0 | 0.00 | 0.00 | 0.00 | 83 | 1012.0 |
| 20260510050519 | 59 | 0 | 0.0 | 1.0 | 0.00 | 0.00 | 0.00 | 83 | 1011.9 |
| 20260510050040 | 59 | 0 | 0.0 | 2.0 | 0.00 | 0.00 | 0.00 | 83 | 1011.8 |
| 20260510045521 | 59 | 0 | 0.0 | 3.0 | 0.00 | 0.00 | 0.00 | 83 | 1011.7 |
| 20260510045021 | 59 | 255 | 0.0 | 3.0 | 0.00 | 0.00 | 0.00 | 83 | 1011.8 |
| 20260510044542 | 59 | 0 | 0.0 | 2.0 | 0.00 | 0.00 | 0.00 | 82 | 1011.9 |
| 20260510044017 | 59 | 0 | 0.0 | 2.0 | 0.00 | 0.00 | 0.00 | 82 | 1011.9 |
| 20260510043520 | 60 | 0 | 0.0 | 2.0 | 0.00 | 0.00 | 0.00 | 82 | 1011.9 |
| 20260510043037 | 60 | 0 | 0.0 | 3.0 | 0.00 | 0.00 | 0.00 | 81 | 1011.9 |
| 20260510042518 | 60 | 0 | 0.0 | 3.0 | 0.00 | 0.00 | 0.00 | 82 | 1011.9 |
| 20260510042018 | 60 | 0 | 0.0 | 3.0 | 0.00 | 0.00 | 0.00 | 81 | 1011.9 |
| 20260510041539 | 60 | 0 | 0.0 | 3.0 | 0.00 | 0.00 | 0.00 | 81 | 1011.8 |
| 20260510041020 | 60 | 223 | 0.0 | 2.0 | 0.00 | 0.00 | 0.00 | 81 | 1011.8 |
| 20260510040520 | 60 | 138 | 0.0 | 2.0 | 0.00 | 0.00 | 0.00 | 81 | 1011.7 |
| 20260510040048 | 60 | 0 | 0.0 | 1.0 | 0.00 | 0.00 | 0.00 | 81 | 1011.8 |
| 20260510035521 | 60 | 232 | 0.0 | 1.0 | 0.00 | 0.00 | 0.00 | 81 | 1011.8 |
| 20260510035018 | 60 | 0 | 0.0 | 1.0 | 0.00 | 0.00 | 0.00 | 81 | 1011.8 |
| 20260510034543 | 60 | 0 | 0.0 | 1.0 | 0.00 | 0.00 | 0.00 | 81 | 1011.6 |
| 20260510034019 | 60 | 0 | 0.0 | 1.0 | 0.00 | 0.00 | 0.00 | 80 | 1011.7 |
| 20260510033521 | 60 | 0 | 0.0 | 1.0 | 0.00 | 0.00 | 0.00 | 80 | 1011.6 |
| 20260510033040 | 60 | 0 | 0.0 | 1.0 | 0.00 | 0.00 | 0.00 | 80 | 1011.6 |
| 20260510032517 | 60 | 178 | 0.0 | 1.0 | 0.00 | 0.00 | 0.00 | 80 | 1011.5 |
| 20260510032019 | 60 | 0 | 0.0 | 1.0 | 0.00 | 0.00 | 0.00 | 79 | 1011.5 |
| 20260510031555 | 60 | 0 | 0.0 | 1.0 | 0.00 | 0.00 | 0.00 | 79 | 1011.5 |
| 20260510031020 | 60 | 0 | 0.0 | 1.0 | 0.00 | 0.00 | 0.00 | 79 | 1011.6 |
| 20260510030518 | 60 | 0 | 0.0 | 1.0 | 0.00 | 0.00 | 0.00 | 79 | 1011.4 |
| 20260510030038 | 60 | 0 | 0.0 | 2.0 | 0.00 | 0.00 | 0.00 | 79 | 1011.5 |
| 20260510025520 | 60 | 0 | 0.0 | 2.0 | 0.00 | 0.00 | 0.00 | 79 | 1011.4 |
| 20260510025020 | 60 | 245 | 0.0 | 2.0 | 0.00 | 0.00 | 0.00 | 79 | 1011.4 |
| 20260510024537 | 60 | 0 | 0.0 | 0.0 | 0.00 | 0.00 | 0.00 | 78 | 1011.3 |
| 20260510024020 | 60 | 0 | 0.0 | 0.0 | 0.00 | 0.00 | 0.00 | 78 | 1011.3 |
| 20260510023520 | 61 | 0 | 0.0 | 0.0 | 0.00 | 0.00 | 0.00 | 77 | 1011.2 |
| 20260510023044 | 61 | 0 | 0.0 | 0.0 | 0.00 | 0.00 | 0.00 | 77 | 1011.2 |
| 20260510022518 | 61 | 0 | 0.0 | 0.0 | 0.00 | 0.00 | 0.00 | 76 | 1011.2 |
| 20260510022022 | 61 | 0 | 0.0 | 0.0 | 0.00 | 0.00 | 0.00 | 75 | 1011.0 |
| 20260510021540 | 61 | 0 | 0.0 | 0.0 | 0.00 | 0.00 | 0.00 | 75 | 1010.9 |
| 20260510021017 | 62 | 0 | 0.0 | 0.0 | 0.00 | 0.00 | 0.00 | 74 | 1010.8 |
| 20260510020518 | 62 | 0 | 0.0 | 0.0 | 0.00 | 0.00 | 0.00 | 74 | 1010.8 |
| 20260510020037 | 62 | 0 | 0.0 | 0.0 | 0.00 | 0.00 | 0.00 | 73 | 1010.8 |
| 20260510015520 | 62 | 0 | 0.0 | 0.0 | 0.00 | 0.00 | 0.00 | 73 | 1010.6 |
| 20260510015019 | 62 | 0 | 0.0 | 0.0 | 0.00 | 0.00 | 0.00 | 73 | 1010.4 |
| 20260510014545 | 63 | 0 | 0.0 | 0.0 | 0.00 | 0.00 | 0.00 | 72 | 1010.4 |
| 20260510014017 | 63 | 0 | 0.0 | 0.0 | 0.00 | 0.00 | 0.00 | 72 | 1010.3 |
| 20260510013519 | 63 | 0 | 0.0 | 0.0 | 0.00 | 0.00 | 0.00 | 71 | 1010.3 |
| 20260510013045 | 64 | 0 | 0.0 | 0.0 | 0.00 | 0.00 | 0.00 | 71 | 1010.2 |
| 20260510012521 | 64 | 0 | 0.0 | 0.0 | 0.00 | 0.00 | 0.00 | 69 | 1010.2 |
| 20260510012018 | 64 | 0 | 0.0 | 0.0 | 0.00 | 0.00 | 0.00 | 69 | 1010.2 |
| 20260510011544 | 65 | 0 | 0.0 | 2.0 | 0.00 | 0.00 | 0.00 | 68 | 1010.1 |
| 20260510011020 | 65 | 0 | 0.0 | 2.0 | 0.00 | 0.00 | 0.00 | 69 | 1010.0 |
| 20260510010520 | 65 | 0 | 0.0 | 2.0 | 0.00 | 0.00 | 0.00 | 69 | 1009.9 |
| 20260510010040 | 66 | 0 | 0.0 | 2.0 | 0.00 | 0.00 | 0.00 | 68 | 1009.9 |
| 20260510005520 | 66 | 0 | 0.0 | 2.0 | 0.00 | 0.00 | 0.00 | 67 | 1009.7 |
| 20260510005020 | 66 | 0 | 0.0 | 1.0 | 0.00 | 0.00 | 0.00 | 67 | 1009.7 |
| 20260510004542 | 67 | 0 | 0.0 | 0.0 | 0.00 | 0.00 | 0.00 | 66 | 1009.6 |
| 20260510004018 | 67 | 0 | 0.0 | 0.0 | 0.00 | 0.00 | 0.00 | 65 | 1009.6 |
| 20260510003518 | 68 | 0 | 0.0 | 1.0 | 0.00 | 0.00 | 0.00 | 64 | 1009.6 |
| 20260510003041 | 68 | 0 | 0.0 | 1.0 | 0.00 | 0.00 | 0.00 | 64 | 1009.6 |
| 20260510002519 | 69 | 0 | 0.0 | 1.0 | 0.00 | 0.00 | 0.00 | 63 | 1009.5 |
| 20260510002019 | 69 | 0 | 0.0 | 1.0 | 0.00 | 0.00 | 0.00 | 62 | 1009.5 |
| 20260510001538 | 69 | 0 | 0.0 | 1.0 | 0.00 | 0.00 | 0.00 | 61 | 1009.4 |
| 20260510001020 | 70 | 0 | 0.0 | 1.0 | 0.00 | 0.00 | 0.00 | 60 | 1009.4 |
| 20260510000519 | 70 | 0 | 0.0 | 1.0 | 0.00 | 0.00 | 0.00 | 60 | 1009.3 |
| 20260510000048 | 71 | 0 | 0.0 | 1.0 | 0.00 | 0.00 | 0.00 | 59 | 1009.3 |
| 20260509235517 | 71 | 0 | 0.0 | 1.0 | 0.00 | 0.00 | 0.00 | 59 | 1009.2 |
| 20260509235019 | 72 | 0 | 0.0 | 1.0 | 0.00 | 0.00 | 0.00 | 58 | 1009.3 |
| 20260509234539 | 72 | 0 | 0.0 | 0.0 | 0.00 | 0.00 | 0.00 | 57 | 1009.2 |
| 20260509234020 | 72 | 0 | 0.0 | 2.0 | 0.00 | 0.00 | 0.00 | 57 | 1009.2 |
| 20260509233519 | 72 | 0 | 0.0 | 2.0 | 0.00 | 0.00 | 0.00 | 55 | 1009.1 |
| 20260509233041 | 73 | 242 | 0.0 | 2.0 | 0.00 | 0.00 | 0.00 | 55 | 1009.1 |
| 20260509232522 | 73 | 208 | 0.0 | 2.0 | 0.00 | 0.00 | 0.00 | 54 | 1009.2 |
| 20260509232019 | 73 | 222 | 0.0 | 3.0 | 0.00 | 0.00 | 0.00 | 54 | 1009.1 |
| 20260509231538 | 73 | 0 | 0.0 | 3.0 | 0.00 | 0.00 | 0.00 | 54 | 1009.1 |
| 20260509231020 | 74 | 0 | 0.0 | 2.0 | 0.00 | 0.00 | 0.00 | 53 | 1009.1 |
| 20260509230520 | 74 | 0 | 0.0 | 2.0 | 0.00 | 0.00 | 0.00 | 52 | 1009.1 |
| 20260509230042 | 74 | 0 | 0.0 | 5.0 | 0.00 | 0.00 | 0.00 | 51 | 1009.1 |
| 20260509225521 | 74 | 0 | 0.0 | 5.0 | 0.00 | 0.00 | 0.00 | 51 | 1009.1 |
| 20260509225018 | 74 | 227 | 1.0 | 7.0 | 0.00 | 0.00 | 0.00 | 51 | 1009.1 |
| 20260509224539 | 74 | 261 | 1.0 | 7.0 | 0.00 | 0.00 | 0.00 | 51 | 1009.1 |
| 20260509224019 | 75 | 159 | 2.0 | 6.0 | 0.00 | 0.00 | 0.00 | 51 | 1009.2 |
| 20260509223524 | 75 | 219 | 1.0 | 6.0 | 0.00 | 0.00 | 0.00 | 50 | 1009.2 |
| 20260509223042 | 75 | 241 | 0.0 | 3.0 | 0.00 | 0.00 | 0.00 | 50 | 1009.1 |
| 20260509222520 | 75 | 0 | 0.0 | 3.0 | 0.00 | 0.00 | 0.00 | 50 | 1009.0 |
| 20260509222020 | 75 | 321 | 0.0 | 8.0 | 0.00 | 0.00 | 0.00 | 49 | 1009.0 |
| 20260509221536 | 76 | 0 | 1.0 | 8.0 | 0.00 | 0.00 | 0.00 | 49 | 1009.0 |
| 20260509221017 | 76 | 202 | 2.0 | 8.0 | 0.00 | 0.00 | 0.00 | 49 | 1009.1 |
| 20260509220517 | 76 | 251 | 2.0 | 8.0 | 0.00 | 0.00 | 0.00 | 49 | 1009.1 |
| 20260509220045 | 76 | 163 | 1.0 | 10.0 | 0.00 | 0.00 | 0.00 | 49 | 1009.0 |
| 20260509215521 | 76 | 188 | 5.0 | 10.0 | 0.00 | 0.00 | 0.00 | 49 | 1009.1 |
| 20260509215019 | 75 | 234 | 1.0 | 5.0 | 0.00 | 0.00 | 0.00 | 49 | 1008.9 |
| 20260509214542 | 75 | 270 | 1.0 | 6.0 | 0.00 | 0.00 | 0.00 | 50 | 1009.0 |
| 20260509214024 | 75 | 212 | 2.0 | 8.0 | 0.00 | 0.00 | 0.00 | 49 | 1009.0 |
| 20260509213518 | 75 | 195 | 2.0 | 8.0 | 0.00 | 0.00 | 0.00 | 49 | 1009.0 |
| 20260509213041 | 75 | 276 | 2.0 | 8.0 | 0.00 | 0.00 | 0.00 | 49 | 1009.0 |
| 20260509212518 | 76 | 207 | 2.0 | 7.0 | 0.00 | 0.00 | 0.00 | 48 | 1009.0 |
| 20260509212023 | 77 | 165 | 2.0 | 7.0 | 0.00 | 0.00 | 0.00 | 47 | 1009.1 |
| 20260509211546 | 77 | 261 | 3.0 | 8.0 | 0.00 | 0.00 | 0.00 | 47 | 1009.1 |
| 20260509211021 | 77 | 232 | 2.0 | 8.0 | 0.00 | 0.00 | 0.00 | 48 | 1009.0 |
| 20260509210518 | 77 | 247 | 2.0 | 5.0 | 0.00 | 0.00 | 0.00 | 47 | 1009.0 |
| 20260509210041 | 77 | 294 | 2.0 | 6.0 | 0.00 | 0.00 | 0.00 | 50 | 1009.0 |
| 20260509205519 | 76 | 344 | 1.0 | 9.0 | 0.00 | 0.00 | 0.00 | 48 | 1009.0 |
| 20260509205017 | 77 | 141 | 1.0 | 9.0 | 0.00 | 0.00 | 0.00 | 47 | 1008.9 |
| 20260509204552 | 77 | 110 | 4.0 | 9.0 | 0.00 | 0.00 | 0.00 | 46 | 1008.9 |
| 20260509204020 | 77 | 174 | 3.0 | 9.0 | 0.00 | 0.00 | 0.00 | 48 | 1008.9 |
| 20260509203521 | 78 | 279 | 2.0 | 9.0 | 0.00 | 0.00 | 0.00 | 48 | 1008.9 |
| 20260509203044 | 79 | 317 | 2.0 | 9.0 | 0.00 | 0.00 | 0.00 | 45 | 1008.8 |
| 20260509202520 | 79 | 213 | 2.0 | 8.0 | 0.00 | 0.00 | 0.00 | 47 | 1008.7 |
| 20260509202021 | 78 | 299 | 1.0 | 4.0 | 0.00 | 0.00 | 0.00 | 47 | 1008.6 |
| 20260509201542 | 77 | 291 | 1.0 | 8.0 | 0.00 | 0.00 | 0.00 | 50 | 1008.7 |
| 20260509201020 | 76 | 188 | 3.0 | 9.0 | 0.00 | 0.00 | 0.00 | 49 | 1008.7 |
| 20260509200520 | 75 | 213 | 2.0 | 9.0 | 0.00 | 0.00 | 0.00 | 53 | 1008.7 |
| 20260509200044 | 75 | 328 | 2.0 | 7.0 | 0.00 | 0.00 | 0.00 | 52 | 1008.7 |
| 20260509195527 | 75 | 0 | 0.0 | 5.0 | 0.00 | 0.00 | 0.00 | 52 | 1008.8 |
| 20260509195021 | 75 | 151 | 2.0 | 4.0 | 0.00 | 0.00 | 0.00 | 52 | 1008.9 |
| 20260509194538 | 76 | 200 | 1.0 | 7.0 | 0.00 | 0.00 | 0.00 | 54 | 1009.0 |
| 20260509194022 | 76 | 155 | 2.0 | 8.0 | 0.00 | 0.00 | 0.00 | 53 | 1009.1 |
| 20260509193522 | 75 | 326 | 2.0 | 9.0 | 0.00 | 0.00 | 0.00 | 53 | 1009.1 |
| 20260509193037 | 76 | 0 | 2.0 | 9.0 | 0.00 | 0.00 | 0.00 | 50 | 1009.2 |
| 20260509192520 | 77 | 196 | 2.0 | 9.0 | 0.00 | 0.00 | 0.00 | 49 | 1009.3 |
| 20260509192023 | 76 | 106 | 3.0 | 9.0 | 0.00 | 0.00 | 0.00 | 50 | 1009.2 |
| 20260509191537 | 75 | 118 | 2.0 | 7.0 | 0.00 | 0.00 | 0.00 | 53 | 1009.2 |
| 20260509191019 | 75 | 237 | 2.0 | 9.0 | 0.00 | 0.00 | 0.00 | 52 | 1009.3 |
| 20260509190523 | 76 | 208 | 2.0 | 9.0 | 0.00 | 0.00 | 0.00 | 53 | 1009.5 |
| 20260509190052 | 77 | 297 | 3.0 | 9.0 | 0.00 | 0.00 | 0.00 | 51 | 1009.6 |
| 20260509185522 | 76 | 149 | 2.0 | 7.0 | 0.00 | 0.00 | 0.00 | 51 | 1009.7 |
| 20260509185021 | 77 | 254 | 1.0 | 6.0 | 0.00 | 0.00 | 0.00 | 52 | 1009.8 |
| 20260509184541 | 76 | 230 | 2.0 | 7.0 | 0.00 | 0.00 | 0.00 | 54 | 1009.9 |
| 20260509184021 | 76 | 277 | 2.0 | 8.0 | 0.00 | 0.00 | 0.00 | 55 | 1010.1 |
| 20260509183522 | 74 | 213 | 1.0 | 9.0 | 0.00 | 0.00 | 0.00 | 56 | 1010.2 |
| 20260509183044 | 74 | 158 | 3.0 | 9.0 | 0.00 | 0.00 | 0.00 | 55 | 1010.3 |
| 20260509182522 | 73 | 234 | 2.0 | 7.0 | 0.00 | 0.00 | 0.00 | 55 | 1010.3 |
| 20260509182026 | 73 | 242 | 2.0 | 7.0 | 0.00 | 0.00 | 0.00 | 56 | 1010.4 |
| 20260509181547 | 74 | 190 | 1.0 | 5.0 | 0.00 | 0.00 | 0.00 | 54 | 1010.3 |
| 20260509181020 | 75 | 267 | 1.0 | 8.0 | 0.00 | 0.00 | 0.00 | 52 | 1010.3 |
| 20260509180525 | 76 | 279 | 2.0 | 9.0 | 0.00 | 0.00 | 0.00 | 53 | 1010.3 |
| 20260509180044 | 74 | 271 | 3.0 | 12.0 | 0.00 | 0.00 | 0.00 | 54 | 1010.4 |
| 20260509175522 | 74 | 233 | 1.0 | 12.0 | 0.00 | 0.00 | 0.00 | 54 | 1010.5 |
| 20260509175020 | 75 | 282 | 2.0 | 7.0 | 0.00 | 0.00 | 0.00 | 54 | 1010.4 |
| 20260509174541 | 75 | 240 | 3.0 | 7.0 | 0.00 | 0.00 | 0.00 | 54 | 1010.4 |
| 20260509174021 | 74 | 304 | 2.0 | 7.0 | 0.00 | 0.00 | 0.00 | 55 | 1010.3 |
| 20260509173524 | 72 | 273 | 1.0 | 4.0 | 0.00 | 0.00 | 0.00 | 60 | 1010.5 |
| 20260509173045 | 73 | 0 | 1.0 | 8.0 | 0.00 | 0.00 | 0.00 | 60 | 1010.7 |
| 20260509172521 | 72 | 293 | 1.0 | 9.0 | 0.00 | 0.00 | 0.00 | 59 | 1010.8 |
| 20260509172022 | 72 | 174 | 3.0 | 9.0 | 0.00 | 0.00 | 0.00 | 57 | 1010.9 |
| 20260509171540 | 73 | 5 | 2.0 | 7.0 | 0.00 | 0.00 | 0.00 | 57 | 1010.7 |
| 20260509171019 | 73 | 139 | 1.0 | 6.0 | 0.00 | 0.00 | 0.00 | 57 | 1010.9 |
| 20260509170521 | 73 | 146 | 2.0 | 7.0 | 0.00 | 0.00 | 0.00 | 58 | 1010.8 |
| 20260509170037 | 73 | 264 | 3.0 | 7.0 | 0.00 | 0.00 | 0.00 | 57 | 1010.9 |
| 20260509165521 | 74 | 172 | 2.0 | 5.0 | 0.00 | 0.00 | 0.00 | 56 | 1010.7 |
| 20260509165020 | 73 | 137 | 2.0 | 4.0 | 0.00 | 0.00 | 0.00 | 58 | 1010.8 |
| 20260509164537 | 72 | 186 | 1.0 | 8.0 | 0.00 | 0.00 | 0.00 | 59 | 1011.0 |
| 20260509164020 | 70 | 153 | 0.0 | 8.0 | 0.00 | 0.00 | 0.00 | 61 | 1011.2 |
| 20260509163521 | 71 | 286 | 0.0 | 7.0 | 0.00 | 0.00 | 0.00 | 61 | 1011.1 |
| 20260509163101 | 71 | 223 | 3.0 | 7.0 | 0.00 | 0.00 | 0.00 | 61 | 1011.2 |
| 20260509162521 | 70 | 288 | 3.0 | 9.0 | 0.00 | 0.00 | 0.00 | 61 | 1011.2 |
| 20260509162022 | 70 | 157 | 2.0 | 9.0 | 0.00 | 0.00 | 0.00 | 60 | 1011.1 |
| 20260509161541 | 71 | 272 | 2.0 | 9.0 | 0.00 | 0.00 | 0.00 | 60 | 1011.3 |
| 20260509161020 | 71 | 246 | 3.0 | 9.0 | 0.00 | 0.00 | 0.00 | 60 | 1011.2 |
| 20260509160520 | 72 | 275 | 2.0 | 9.0 | 0.00 | 0.00 | 0.00 | 58 | 1011.3 |
| 20260509160041 | 73 | 247 | 2.0 | 7.0 | 0.00 | 0.00 | 0.00 | 57 | 1011.2 |
| 20260509155520 | 71 | 147 | 1.0 | 6.0 | 0.00 | 0.00 | 0.00 | 63 | 1011.4 |
| 20260509155022 | 70 | 169 | 1.0 | 7.0 | 0.00 | 0.00 | 0.00 | 63 | 1011.3 |
| 20260509154543 | 69 | 198 | 2.0 | 7.0 | 0.00 | 0.00 | 0.00 | 62 | 1011.4 |
| 20260509154023 | 70 | 134 | 1.0 | 6.0 | 0.00 | 0.00 | 0.00 | 61 | 1011.4 |
| 20260509153520 | 69 | 249 | 1.0 | 5.0 | 0.00 | 0.00 | 0.00 | 64 | 1011.5 |
| 20260509153037 | 68 | 224 | 1.0 | 8.0 | 0.00 | 0.00 | 0.00 | 67 | 1011.6 |
| 20260509152520 | 68 | 272 | 1.0 | 8.0 | 0.00 | 0.00 | 0.00 | 66 | 1011.6 |
| 20260509152022 | 67 | 230 | 3.0 | 8.0 | 0.00 | 0.00 | 0.00 | 65 | 1011.7 |
| 20260509151552 | 67 | 262 | 1.0 | 5.0 | 0.00 | 0.00 | 0.00 | 66 | 1011.9 |
| 20260509151020 | 66 | 156 | 1.0 | 8.0 | 0.00 | 0.00 | 0.00 | 67 | 1011.8 |
| 20260509150520 | 65 | 107 | 2.0 | 8.0 | 0.00 | 0.00 | 0.00 | 67 | 1012.0 |
| 20260509150042 | 65 | 259 | 1.0 | 9.0 | 0.00 | 0.00 | 0.00 | 66 | 1012.1 |
| 20260509145522 | 65 | 212 | 2.0 | 9.0 | 0.00 | 0.00 | 0.00 | 67 | 1012.0 |
| 20260509145020 | 66 | 0 | 3.0 | 9.0 | 0.00 | 0.00 | 0.00 | 65 | 1011.9 |
| 20260509144543 | 66 | 295 | 4.0 | 9.0 | 0.00 | 0.00 | 0.00 | 67 | 1012.0 |
| 20260509144019 | 64 | 232 | 1.0 | 9.0 | 0.00 | 0.00 | 0.00 | 69 | 1011.9 |
| 20260509143522 | 63 | 186 | 4.0 | 9.0 | 0.00 | 0.00 | 0.00 | 69 | 1012.1 |
| 20260509143048 | 63 | 128 | 2.0 | 7.0 | 0.00 | 0.00 | 0.00 | 69 | 1012.0 |
| 20260509142520 | 62 | 179 | 1.0 | 8.0 | 0.00 | 0.00 | 0.00 | 69 | 1012.2 |
| 20260509142021 | 61 | 323 | 2.0 | 8.0 | 0.00 | 0.00 | 0.00 | 70 | 1012.4 |
| 20260509141542 | 61 | 167 | 1.0 | 4.0 | 0.00 | 0.00 | 0.00 | 72 | 1012.4 |
| 20260509141021 | 60 | 312 | 1.0 | 3.0 | 0.00 | 0.00 | 0.00 | 71 | 1012.5 |
| 20260509140519 | 60 | 149 | 0.0 | 4.0 | 0.00 | 0.00 | 0.00 | 73 | 1012.5 |
| 20260509140047 | 59 | 286 | 1.0 | 8.0 | 0.00 | 0.00 | 0.00 | 72 | 1012.6 |
| 20260509135520 | 59 | 175 | 2.0 | 8.0 | 0.00 | 0.00 | 0.00 | 72 | 1012.5 |
| 20260509135021 | 58 | 199 | 0.0 | 5.0 | 0.00 | 0.00 | 0.00 | 73 | 1012.5 |
| 20260509134543 | 58 | 329 | 1.0 | 6.0 | 0.00 | 0.00 | 0.00 | 73 | 1012.6 |
| 20260509134022 | 57 | 0 | 1.0 | 6.0 | 0.00 | 0.00 | 0.00 | 74 | 1012.8 |
| 20260509133524 | 57 | 0 | 1.0 | 4.0 | 0.00 | 0.00 | 0.00 | 74 | 1012.7 |
| 20260509133042 | 57 | 53 | 1.0 | 4.0 | 0.00 | 0.00 | 0.00 | 74 | 1012.8 |
| 20260509132519 | 57 | 150 | 1.0 | 5.0 | 0.00 | 0.00 | 0.00 | 74 | 1012.7 |
| 20260509132020 | 56 | 294 | 1.0 | 5.0 | 0.00 | 0.00 | 0.00 | 74 | 1012.7 |
| 20260509131543 | 56 | 199 | 1.0 | 7.0 | 0.00 | 0.00 | 0.00 | 73 | 1012.8 |
| 20260509131025 | 56 | 211 | 2.0 | 7.0 | 0.00 | 0.00 | 0.00 | 74 | 1012.8 |
| 20260509130522 | 56 | 319 | 2.0 | 7.0 | 0.00 | 0.00 | 0.00 | 74 | 1012.8 |
| 20260509130044 | 56 | 174 | 1.0 | 7.0 | 0.00 | 0.00 | 0.00 | 75 | 1012.8 |
| 20260509125519 | 56 | 163 | 2.0 | 9.0 | 0.00 | 0.00 | 0.00 | 75 | 1012.9 |
| 20260509125019 | 55 | 184 | 2.0 | 9.0 | 0.00 | 0.00 | 0.00 | 75 | 1012.9 |
| 20260509124541 | 55 | 0 | 2.0 | 7.0 | 0.00 | 0.00 | 0.00 | 75 | 1012.8 |
| 20260509124019 | 55 | 76 | 1.0 | 7.0 | 0.00 | 0.00 | 0.00 | 76 | 1012.7 |
| 20260509123522 | 55 | 107 | 1.0 | 6.0 | 0.00 | 0.00 | 0.00 | 75 | 1012.9 |
| 20260509123053 | 54 | 104 | 1.0 | 6.0 | 0.00 | 0.00 | 0.00 | 76 | 1012.9 |
| 20260509122519 | 54 | 268 | 0.0 | 7.0 | 0.00 | 0.00 | 0.00 | 76 | 1012.7 |
| 20260509122020 | 54 | 178 | 1.0 | 7.0 | 0.00 | 0.00 | 0.00 | 76 | 1012.7 |
| 20260509121541 | 54 | 117 | 1.0 | 7.0 | 0.00 | 0.00 | 0.00 | 76 | 1012.8 |
| 20260509121022 | 53 | 190 | 2.0 | 8.0 | 0.00 | 0.00 | 0.00 | 76 | 1012.9 |
| 20260509120519 | 53 | 219 | 2.0 | 8.0 | 0.00 | 0.00 | 0.00 | 76 | 1012.9 |
| 20260509120041 | 53 | 242 | 1.0 | 6.0 | 0.00 | 0.00 | 0.00 | 76 | 1012.9 |
| 20260509115519 | 53 | 125 | 2.0 | 6.0 | 0.00 | 0.01 | 0.00 | 77 | 1012.9 |
| 20260509115026 | 52 | 0 | 1.0 | 8.0 | 0.00 | 0.01 | 0.00 | 77 | 1012.9 |
| 20260509114542 | 52 | 170 | 0.0 | 8.0 | 0.00 | 0.01 | 0.00 | 77 | 1012.8 |
| 20260509114020 | 52 | 182 | 1.0 | 5.0 | 0.00 | 0.01 | 0.00 | 77 | 1013.0 |
| 20260509113520 | 52 | 110 | 1.0 | 4.0 | 0.00 | 0.01 | 0.00 | 77 | 1012.9 |
| 20260509113105 | 52 | 109 | 1.0 | 7.0 | 0.00 | 0.01 | 0.00 | 77 | 1012.8 |
| 20260509112519 | 51 | 111 | 1.0 | 7.0 | 0.00 | 0.01 | 0.00 | 78 | 1012.7 |
| 20260509112018 | 51 | 0 | 0.0 | 4.0 | 0.00 | 0.01 | 0.00 | 77 | 1012.7 |
| 20260509111545 | 51 | 178 | 1.0 | 4.0 | 0.00 | 0.01 | 0.00 | 78 | 1012.8 |
| 20260509111019 | 51 | 226 | 1.0 | 3.0 | 0.00 | 0.01 | 0.00 | 78 | 1012.8 |
| 20260509110518 | 50 | 0 | 1.0 | 3.0 | 0.00 | 0.01 | 0.00 | 78 | 1012.9 |
| 20260509110037 | 50 | 165 | 1.0 | 5.0 | 0.00 | 0.01 | 0.00 | 78 | 1012.7 |
| 20260509105519 | 50 | 202 | 0.0 | 7.0 | 0.00 | 0.01 | 0.00 | 79 | 1012.6 |
| 20260509105019 | 49 | 136 | 1.0 | 7.0 | 0.00 | 0.01 | 0.00 | 79 | 1012.6 |
| 20260509104552 | 49 | 0 | 1.0 | 5.0 | 0.00 | 0.01 | 0.00 | 79 | 1012.7 |
| 20260509104019 | 48 | 0 | 0.0 | 3.0 | 0.00 | 0.01 | 0.00 | 80 | 1012.8 |
| 20260509103521 | 48 | 0 | 1.0 | 3.0 | 0.00 | 0.01 | 0.00 | 80 | 1012.8 |
| 20260509103050 | 48 | 0 | 0.0 | 4.0 | 0.00 | 0.01 | 0.00 | 81 | 1012.8 |
| 20260509102519 | 48 | 143 | 0.0 | 4.0 | 0.00 | 0.01 | 0.00 | 81 | 1012.5 |
| 20260509102017 | 47 | 0 | 0.0 | 2.0 | 0.00 | 0.01 | 0.00 | 81 | 1012.5 |
| 20260509101540 | 47 | 0 | 0.0 | 1.0 | 0.00 | 0.01 | 0.00 | 81 | 1012.5 |
| 20260509101021 | 47 | 0 | 0.0 | 3.0 | 0.00 | 0.01 | 0.00 | 81 | 1012.5 |
| 20260509100520 | 47 | 0 | 0.0 | 3.0 | 0.00 | 0.01 | 0.00 | 82 | 1012.5 |
| 20260509100053 | 47 | 0 | 0.0 | 3.0 | 0.00 | 0.01 | 0.00 | 81 | 1012.4 |
| 20260509095520 | 47 | 163 | 0.0 | 3.0 | 0.00 | 0.01 | 0.00 | 82 | 1012.5 |
| 20260509095020 | 47 | 0 | 0.0 | 1.0 | 0.00 | 0.01 | 0.00 | 82 | 1012.5 |
| 20260509094547 | 47 | 0 | 0.0 | 0.0 | 0.00 | 0.01 | 0.00 | 82 | 1012.4 |
| 20260509094019 | 47 | 0 | 0.0 | 0.0 | 0.00 | 0.01 | 0.00 | 82 | 1012.6 |
| 20260509093519 | 47 | 0 | 0.0 | 0.0 | 0.00 | 0.01 | 0.00 | 81 | 1012.6 |
| 20260509093043 | 47 | 0 | 0.0 | 0.0 | 0.00 | 0.01 | 0.00 | 81 | 1012.7 |
| 20260509092518 | 47 | 0 | 0.0 | 0.0 | 0.00 | 0.01 | 0.00 | 80 | 1012.8 |
| 20260509092021 | 47 | 0 | 0.0 | 0.0 | 0.00 | 0.01 | 0.00 | 79 | 1012.8 |
| 20260509091546 | 47 | 0 | 0.0 | 0.0 | 0.00 | 0.01 | 0.00 | 79 | 1012.7 |
| 20260509091017 | 47 | 0 | 0.0 | 0.0 | 0.00 | 0.01 | 0.00 | 79 | 1012.8 |
| 20260509090520 | 47 | 0 | 0.0 | 1.0 | 0.00 | 0.01 | 0.00 | 80 | 1012.8 |
| 20260509090042 | 47 | 0 | 0.0 | 1.0 | 0.00 | 0.01 | 0.00 | 80 | 1012.8 |
| 20260509085517 | 47 | 0 | 0.0 | 1.0 | 0.00 | 0.01 | 0.00 | 79 | 1013.0 |
| 20260509085017 | 47 | 0 | 0.0 | 2.0 | 0.00 | 0.01 | 0.00 | 78 | 1012.9 |
| 20260509084538 | 47 | 0 | 0.0 | 2.0 | 0.00 | 0.01 | 0.00 | 78 | 1013.0 |
| 20260509084021 | 47 | 0 | 0.0 | 2.0 | 0.00 | 0.01 | 0.00 | 77 | 1012.9 |
| 20260509083519 | 47 | 0 | 0.0 | 0.0 | 0.00 | 0.01 | 0.00 | 77 | 1013.0 |
| 20260509083042 | 47 | 0 | 0.0 | 0.0 | 0.00 | 0.01 | 0.00 | 77 | 1013.0 |
| 20260509082544 | 48 | 0 | 0.0 | 1.0 | 0.00 | 0.01 | 0.00 | 76 | 1013.1 |
| 20260509082022 | 48 | 0 | 0.0 | 1.0 | 0.00 | 0.01 | 0.00 | 76 | 1013.2 |
| 20260509081537 | 48 | 0 | 0.0 | 0.0 | 0.00 | 0.01 | 0.00 | 75 | 1013.2 |
| 20260509081022 | 48 | 0 | 0.0 | 0.0 | 0.00 | 0.01 | 0.00 | 74 | 1013.1 |
| 20260509080525 | 48 | 0 | 0.0 | 0.0 | 0.00 | 0.01 | 0.00 | 73 | 1013.1 |
| 20260509080049 | 49 | 0 | 0.0 | 0.0 | 0.00 | 0.01 | 0.00 | 73 | 1013.1 |
| 20260509075522 | 49 | 0 | 0.0 | 0.0 | 0.00 | 0.01 | 0.00 | 72 | 1013.2 |
| 20260509075022 | 49 | 0 | 0.0 | 0.0 | 0.00 | 0.01 | 0.00 | 71 | 1013.1 |
| 20260509074544 | 49 | 0 | 0.0 | 0.0 | 0.00 | 0.01 | 0.00 | 71 | 1013.2 |
| 20260509074025 | 49 | 0 | 0.0 | 1.0 | 0.00 | 0.01 | 0.00 | 71 | 1013.1 |
| 20260509073521 | 50 | 0 | 0.0 | 1.0 | 0.00 | 0.01 | 0.00 | 72 | 1013.1 |
| 20260509073046 | 50 | 0 | 0.0 | 0.0 | 0.00 | 0.01 | 0.00 | 71 | 1013.1 |
| 20260509072523 | 50 | 0 | 0.0 | 0.0 | 0.00 | 0.01 | 0.00 | 72 | 1013.1 |
| 20260509072020 | 50 | 0 | 0.0 | 0.0 | 0.00 | 0.01 | 0.00 | 71 | 1013.2 |
| 20260509071542 | 51 | 0 | 0.0 | 0.0 | 0.00 | 0.01 | 0.00 | 69 | 1013.4 |
| 20260509071021 | 51 | 0 | 0.0 | 1.0 | 0.00 | 0.01 | 0.00 | 68 | 1013.4 |
| 20260509070520 | 51 | 0 | 0.0 | 1.0 | 0.00 | 0.01 | 0.00 | 67 | 1013.5 |
| 20260509070045 | 51 | 0 | 0.0 | 1.0 | 0.00 | 0.01 | 0.00 | 67 | 1013.5 |